Location: Casilda
(33.0440°S, 61.1680°W)
Time: 15:35:56
(UTC-03:00)

ISS - Pass Details

Date: 17 June 2021
Orbit: 417 x 422 km, 51.6° (Epoch: 16 June)

Event Time Altitude Azimuth Distance (km) Brightness Sun altitude
Rises 20:03:36 0° 309° (NW) 2,365 1.1 -24.1°
Reaches altitude 10° 20:05:42 10° 306° (NW) 1,508 -0.1 -24.5°
Enters shadow 20:07:53 36° 293° (WNW) 689 -2.2 -25.0°
